+ View the NASA Portal
+ Center for Near-Earth Object Studies
IMPORTANT:
The SSD Announcement email list is now available. Major changes are coming in the near future, including possible hostname and/or URL changes. To be notified of such changes, subscribe to this email list.
Please visit
this page
for more details.
Don't show this message again
JPL Small-Body Database Browser
Search:
[
help
]
214729 (2006 TH24)
Classification:
Main-belt Asteroid
SPK-ID:
2214729
[
Ephemeris
|
Orbit Diagram
|
Orbital Elements
|
Mission Design
|
Physical Parameters
|
Discovery Circumstances
|
Close-Approach Data
]
[ show orbit diagram ]
Orbital Elements at Epoch 2458600.5 (2019-Apr-27.0) TDB
Reference:
JPL 16
(heliocentric ecliptic J2000)
Element
Value
Uncertainty (1-sigma)
Units
e
.1358244139033389
4.7662e-08
a
2.599180765282026
1.9368e-08
au
q
2.246148561208763
1.2873e-07
au
i
3.40971744330201
4.0005e-06
deg
node
244.9482602628469
0.00011017
deg
peri
51.48526255597294
0.00011263
deg
M
72.56022629828178
2.1948e-05
deg
t
p
2458292.004181852203
(2018-Jun-22.50418185)
9.3822e-05
TDB
period
1530.569847958656
4.19
1.7108e-05
4.684e-08
d
yr
n
.2352065150637441
2.6291e-09
deg/d
Q
2.952212969355289
2.1999e-08
au
Orbit Determination Parameters
# obs. used (total)
266
data-arc span
5286 days (14.47 yr)
first obs. used
2005-06-06
last obs. used
2019-11-26
planetary ephem.
DE431
SB-pert. ephem.
SB431-N16
condition code
0
norm. resid. RMS
.55847
source
ORB
producer
Otto Matic
solution date
2019-Dec-04 16:58:48
Additional Information
Earth MOID
= 1.23145 au
Jupiter MOID
= 2.22956 au
T_jup
= 3.400
[ show covariance matrix ]
[
Ephemeris
|
Orbit Diagram
|
Orbital Elements
|
Mission Design
|
Physical Parameters
|
Discovery Circumstances
|
Close-Approach Data
]
Physical Parameter Table
Parameter
Symbol
Value
Units
Sigma
Reference
Notes
absolute magnitude
H
16.5
n/a
MPO454542
214729 (2006 TH24)
Discovered 2006-Oct-12 by Spacewatch at Kitt Peak
Reference:
20090509/Numbers.arc
Last Updated:
2009-05-11
[ show close-approach data ]
Alternate Designations
2006 TH24
= 2005 LR24
[
Ephemeris
|
Orbit Diagram
|
Orbital Elements
|
Mission Design
|
Physical Parameters
|
Discovery Circumstances
|
Close-Approach Data
]
2019-Dec-06 10:57 UT
(server date/time)
Site Manager:
Ryan S. Park
Webmaster
:
Alan B. Chamberlin